Location: Ennevelin
(50.5412°N, 3.1297°E)
Time: 14:31:52
(UTC+00:00)

Daily predictions for brighter satellites

Satellite Brightness Start Highest point End
(mag) Time Altitude Azimuth Time Altitude Azimuth Time Altitude Azimuth
SWAS 4.5 20:22:11 10° NNW 20:26:32 89° ENE 20:30:50 10° SSE
SL-24 R/B - RUBIN 2 4.3 20:25:30 10° NNW 20:29:44 46° NE 20:34:05 10° ESE
Cosmos 1869 Rocket 4.1 20:25:27 10° N 20:29:48 46° ENE 20:34:07 10° SSE
Cosmos 1980 Rocket 2.4 20:24:50 10° S 20:30:14 49° ESE 20:35:42 10° NE
CARTOSAT-1 3.6 20:27:09 10° SSE 20:31:26 69° ENE 20:35:45 10° N
Cosmos 2228 Rocket 4.0 20:30:03 10° SSE 20:34:07 33° E 20:38:12 10° NNE
Cosmos 1464 Rocket 4.0 20:29:01 10° S 20:35:12 78° E 20:41:22 10° NNE
ARGOS Delta rocket 4.2 20:29:57 10° NNE 20:35:29 90° S 20:40:55 10° SSW
Cosmos 1378 4.5 20:34:48 10° SE 20:37:41 23° E 20:40:37 10° NE
ISS -3.7 20:34:37 10° WNW 20:37:58 69° SSW 20:41:17 10° ESE
Cosmos 2344 3.6 20:30:56 10° SSW 20:38:14 59° SE 20:45:47 10° NE
Cosmos 2322 Rocket 4.0 20:37:05 10° ESE 20:39:26 13° E 20:41:46 10° ENE
Cosmos 2369 3.7 20:34:18 10° SSW 20:39:52 66° ESE 20:45:30 10° NE
Cosmos 773 Rocket 4.0 20:34:41 10° NNW 20:39:58 79° ENE 20:45:09 10° SSE
Cosmos 1844 Rocket 4.3 20:35:34 10° NNW 20:40:05 24° NE 20:44:34 10° E
Cosmos 1536 3.6 20:36:24 10° NNW 20:40:20 51° W 20:44:14 10° S
Cosmos 1354 Rocket 4.2 20:35:40 10° S 20:40:47 54° ESE 20:45:58 10° NNE
Spot 2 Rocket 3.8 20:36:05 10° SE 20:40:59 55° ENE 20:45:56 10° N
SPOT 3 Rocket 3.6 20:37:01 10° SSE 20:42:10 84° ENE 20:47:21 10° NNW
ATLAS 2AS CENTAUR R/B 3.2 20:35:40 10° S 20:43:01 47° ESE 20:50:11 10° NE
H-2A R/B 3.2 20:41:23 10° N 20:45:18 44° WNW 20:49:13 10° SW
Okean 1 3.5 20:41:26 10° S 20:45:20 54° E 20:49:17 10° NNE
Cosmos 1092 Rocket 4.3 20:39:57 10° N 20:46:03 55° ENE 20:52:03 10° SSE
Cosmos 1486 Rocket 4.3 20:40:58 10° SSW 20:46:16 75° WNW 20:51:34 10° NNE
Nadezhda 4 Rocket 4.0 20:40:39 10° N 20:46:56 89° E 20:53:06 10° S
Meteor 1-19 Rocket 4.3 20:42:11 10° S 20:47:28 57° E 20:52:46 10° NNE
NOSS 3-4 (A) 3.6 20:41:48 10° SW 20:47:34 76° NW 20:53:55 10° NE
NOSS 3-4 (C) 3.6 20:41:51 10° SW 20:47:38 76° NW 20:54:00 10° NE
SL-4 R/B 3.9 20:44:56 10° W 20:48:24 22° SW 20:51:43 10° S
RESURS DK-1 2.9 20:45:13 10° S 20:49:01 37° ESE 20:52:49 10° NE
Cosmos 1697 Rocket 3.1 20:43:25 10° SW 20:49:04 71° WNW 20:54:46 10° NNE
Meteor 2-14 Rocket 4.5 20:43:46 10° N 20:49:54 82° E 20:56:00 10° SSE
USA 267 4.1 20:48:48 10° ENE 20:55:06 52° N 21:01:24 10° WNW
Cosmos 2297 Rocket 4.5 20:51:27 10° WNW 20:55:11 18° W 20:58:53 10° SW
ATLAS CENTAUR R/B 3.7 20:51:38 10° NNW 20:55:41 25° NNE 20:59:38 10° E
Cosmos 44 Rocket 3.3 20:52:30 10° NW 20:57:15 77° NE 21:01:28 13° SE
ARIANE 5 R/B 3.4 20:53:39 12° SE 20:57:33 41° ENE 21:01:48 10° N
Cosmos 2227 4.4 20:57:05 10° NNW 21:02:52 72° ENE 21:07:59 13° SE
Cosmos 1184 Rocket 3.9 21:01:48 10° SSW 21:04:41 41° WNW 21:07:35 10° N
Cosmos 158 Rocket 4.0 20:59:40 10° NNW 21:04:48 76° ENE 21:09:24 14° SSE
ATLAS 3B R/B 3.1 20:58:54 10° NW 21:06:12 71° NE 21:13:24 12° SE
Meteor 2-9 Rocket 4.4 21:00:27 10° NNW 21:06:15 77° W 21:11:52 10° S
NOSS 2-1 (E) 4.3 21:08:11 16° SE 21:09:07 18° ESE 21:11:25 10° ENE
Cosmos 1975 2.9 21:06:12 10° N 21:10:16 66° ENE 21:13:33 15° SSE
Cosmos 2026 Rocket 4.0 21:05:11 10° N 21:11:21 71° ENE 21:17:00 13° SSE
USA 81 4.5 21:09:00 13° SSE 21:13:32 47° E 21:18:35 10° NNE
Cosmos 1503 Rocket 4.3 21:10:18 10° SSW 21:15:34 72° WNW 21:20:56 10° NNE
CZ-4B R/B 3.9 21:13:22 10° NNW 21:15:56 22° WNW 21:18:28 10° WSW
ERS-1 Rocket 3.0 21:12:32 13° SSE 21:17:08 88° W 21:22:14 10° NNW
Meteor 1-4 Rocket 4.0 21:14:35 10° NNE 21:17:30 24° ENE 21:19:36 15° ESE
CZ-4C R/B 4.1 21:11:43 10° NW 21:17:41 36° NNE 21:24:48 10° E
SL-16 R/B 2.9 21:13:28 12° SSE 21:18:08 34° ESE 21:23:11 10° NE
BREEZE-M (TANK) 4.4 21:13:34 10° WSW 21:18:12 83° S 21:39:48 10° E
Cosmos 1538 Rocket 4.1 21:14:54 10° NNW 21:20:11 74° ENE 21:24:18 16° SSE
Helios 1A Rocket 3.5 21:19:01 11° S 21:22:46 52° W 21:26:43 10° NNW
CZ-2C R/B 3.8 21:18:19 10° NNE 21:23:06 66° ESE 21:27:47 10° S
Cosmos 1733 Rocket 3.3 21:20:07 10° N 21:24:32 58° ENE 21:27:44 18° SSE
SAR-Lupe-4 4.4 21:28:21 10° NNE 21:31:39 33° E 21:33:22 21° SSE
Geosat 4.2 21:28:35 16° SE 21:32:33 64° NE 21:37:32 10° NNW
SJ 16-02 1.7 21:28:29 10° SSW 21:32:49 65° WNW 21:37:12 10° NNE
Meteor 1-18 Rocket 4.2 21:27:36 10° S 21:33:18 88° ESE 21:38:57 10° NNE
Iridium 45 4.5 21:33:05 20° S 21:35:25 66° E 21:38:53 10° N
Cosmos 2292 Rocket 3.3 21:33:15 10° NNW 21:36:14 49° W 21:38:15 17° SSW
Cosmos 2278 3.8 21:32:54 10° SSW 21:38:35 86° WNW 21:44:19 10° NNE
Cosmos 1862 Rocket 3.9 21:37:31 19° SSE 21:40:32 52° E 21:44:54 10° NNE
BREEZE M DEB (TANK) 4.5 21:37:49 10° W 21:42:16 46° SSW 21:55:47 13° SE
Cosmos 1726 3.8 21:40:23 10° NNE 21:43:19 22° ENE 21:45:09 15° ESE
Cosmos 2360 Rocket 3.3 21:40:42 18° SE 21:43:19 26° ESE 21:47:54 10° NE
Cosmos 2263 Rocket 3.0 21:39:36 10° NW 21:44:50 42° WSW 21:49:11 14° S
Meteor 2-15 4.4 21:41:00 13° S 21:46:25 76° E 21:52:30 10° NNE
NOSS 2-1 (C) 2.9 21:46:44 14° SSW 21:49:19 51° SE 21:52:29 10° NE
SPOT 5 3.9 21:45:43 11° S 21:50:29 44° W 21:55:22 10° NNW
Terra 2.3 21:47:56 16° S 21:51:39 56° W 21:56:21 10° NNW
SAR-Lupe-1 4.0 21:49:10 10° NNE 21:52:46 65° ESE 21:54:47 24° S
Cosmos 1441 Rocket 3.4 21:51:04 25° SSE 21:52:54 50° E 21:56:30 10° NNE
Resurs 01 Rocket 4.4 21:52:03 10° W 21:53:12 11° W 21:54:22 10° WNW
Cosmos 1346 Rocket 2.8 21:50:23 16° SSW 21:53:34 84° WNW 21:57:36 10° N
Cosmos 2279 Rocket 4.0 21:53:30 17° S 21:58:27 74° E 22:04:41 10° NNE
Cosmos 2278 Rocket 4.4 21:55:41 10° N 21:59:39 19° NE 22:03:36 10° ENE
NOSS 2-1 (D) 2.6 21:56:58 13° SSW 21:59:46 66° SE 22:03:00 10° NE
Cosmos 1680 Rocket 3.9 21:54:42 10° NNW 21:59:57 57° ENE 22:03:26 21° SE
USA 215 4.0 21:54:48 10° ENE 22:00:22 29° SE 22:03:42 19° S
Cosmos 990 Rocket 4.3 21:57:54 21° S 22:01:12 49° ESE 22:06:15 10° NNE
Iridium 2 3.6 21:58:40 10° N 22:02:27 90° ESE 22:04:23 27° S
Cosmos 1818 3.8 22:02:44 10° NW 22:08:13 68° NE 22:12:09 19° SE
Cosmos 1066 Rocket 4.3 22:05:06 20° S 22:09:04 66° E 22:14:40 10° NNE
ADEOS Rocket 4.3 22:05:31 11° ESE 22:10:03 28° ENE 22:15:09 10° N
Iridium 4 Rocket 3.8 22:06:48 10° N 22:11:12 46° E 22:13:43 25° SE
ISS -2.0 22:11:54 10° W 22:14:18 18° SW 22:14:21 18° SW
Cosmos 1980 Rocket 3.8 22:09:14 10° WSW 22:14:26 36° NW 22:19:41 10° NNE
Cosmos 1898 Rocket 4.0 22:11:50 24° SSE 22:14:35 44° ESE 22:19:37 10° NE
Okean 1-7 3.4 22:17:25 28° SSE 22:19:21 48° E 22:23:34 10° NNE
Iridium 51 4.0 22:21:00 36° SSE 22:22:14 68° E 22:25:49 10° N
Cosmos 2322 Rocket 2.1 22:18:02 17° SSW 22:22:27 72° ESE 22:28:04 10° NNE
Cosmos 1844 Rocket 2.6 22:19:04 10° NNW 22:24:42 85° WSW 22:27:57 26° SSE
Cosmos 2180 Rocket 4.4 22:21:19 20° S 22:25:45 88° E 22:31:57 10° N
Okean 3 4.0 22:25:02 30° SE 22:26:37 43° E 22:30:40 10° NNE
Cosmos 1805 3.5 22:22:49 10° NNW 22:26:41 62° W 22:28:28 29° SSW
RESURS DK-1 4.3 22:23:23 10° WSW 22:27:04 31° NW 22:30:46 10° NNE
Cosmos 2333 Rocket 3.1 22:25:18 24° SE 22:27:28 32° ESE 22:32:26 10° NE
Cosmos 1461 4.0 22:26:49 10° NNW 22:30:43 39° NE 22:33:54 15° ESE
H-2A R/B 4.4 22:27:29 10° NNE 22:31:11 32° E 22:32:20 27° SE
BREEZE-M DEB (TANK) 3.4 22:29:20 10° W 22:31:47 27° SSW 22:31:53 27° SSW
ATLAS 2AS CENTAUR R/B 3.5 22:26:16 10° WSW 22:33:58 61° NW 22:41:21 10° NE
ARIANE 5 R/B 4.3 22:31:11 14° SW 22:34:08 27° W 22:37:58 10° NW
ATLAS CENTAUR R/B 1.7 22:30:16 10° NW 22:35:12 81° NE 22:37:50 26° SE
Meteor 1-23 Rocket 4.5 22:34:02 26° SSE 22:37:12 58° E 22:42:56 10° NNE
USA 267 3.4 22:31:14 10° ESE 22:37:46 75° NNE 22:44:19 10° WNW
Cosmos 1733 4.0 22:36:11 10° NNW 22:39:46 42° W 22:41:23 26° SSW
Cosmos 1766 3.2 22:37:56 10° NNW 22:41:53 79° W 22:43:23 36° S
Cosmos 2219 Rocket 3.0 22:44:47 26° SE 22:46:48 34° ESE 22:51:47 10° NE
Cosmos 1844 3.8 22:42:36 10° NNW 22:48:23 69° WSW 22:51:27 29° S
Cosmos 1703 Rocket 3.5 22:48:15 31° S 22:50:21 89° NW 22:54:48 10° N
Meteor 1-4 Rocket 4.1 22:49:22 10° NW 22:52:18 26° W 22:53:35 20° SW
Cosmos 372 Rocket 4.3 22:51:17 31° SSE 22:53:22 48° ESE 22:58:20 10° NNE
ATLAS 3B R/B 3.7 22:50:01 10° NW 22:56:37 37° WSW 23:00:39 22° SSW
NOSS 2-1 (E) 4.2 22:56:08 10° WSW 22:59:09 39° NW 23:02:24 10° NE
Cosmos 1655 Rocket 4.2 22:54:20 10° NNW 23:00:31 63° W 23:04:10 25° SSW
NOSS 3-1 (A) 4.2 22:53:22 10° NW 23:00:31 71° NE 23:08:57 10° SE
Cosmos 1707 3.6 23:00:36 31° SE 23:01:32 36° E 23:05:07 10° NNE
SL-16 R/B 3.0 22:56:34 10° SW 23:02:04 50° NW 23:07:36 10° NNE
Cosmos 1782 Rocket 3.6 22:58:45 10° NNW 23:03:07 73° W 23:04:50 36° S
ERS-2 2.4 23:02:38 10° NNE 23:06:11 49° ESE 23:06:52 42° SE
SWARM C 4.5 23:06:26 54° S 23:07:08 84° E 23:10:32 10° N
CZ-4C R/B 3.0 23:00:09 10° NW 23:07:10 82° NE 23:14:17 15° SE
NOSS 3-1 (C) 4.0 23:00:34 10° NW 23:07:52 80° SW 23:14:02 21° SSE
USA 290 4.1 23:10:46 19° E 23:10:46 19° E 23:12:53 10° NE
Cosmos 1238 Rocket 3.9 23:08:51 10° NNE 23:11:18 23° ENE 23:11:57 21° E
SJ 16-02 4.3 23:10:38 10° WNW 23:12:18 12° NW 23:13:59 10° NNW
SWARM A 4.2 23:12:49 54° S 23:13:31 85° W 23:16:55 10° N
Gblst 52 Del rocket 4.2 23:08:16 10° WSW 23:14:39 69° SSE 23:20:19 10° ENE
Cosmos 2237 Rocket 4.0 23:14:56 15° ESE 23:16:50 17° E 23:20:21 10° ENE
Cosmos 1470 2.7 23:14:02 10° NNW 23:17:56 78° W 23:19:01 45° S
Cosmos 1726 3.3 23:15:03 10° NNW 23:18:23 33° W 23:19:26 27° SW
Cosmos 1300 Rocket 3.5 23:14:53 10° N 23:19:16 89° WSW 23:20:51 39° S
COSMOS 2428 3.2 23:17:53 30° SSE 23:20:07 43° ESE 23:25:28 10° NE
Cosmos 2151 Rocket 4.2 23:17:47 10° N 23:22:04 48° ENE 23:23:57 29° SE
ALOS 2 2.7 23:22:00 37° S 23:23:36 65° WSW 23:28:00 10° NNW
Cosmos 2242 Rocket 4.1 23:21:24 28° SW 23:23:39 57° WNW 23:28:09 10° N
Cosmos 1242 Rocket 2.7 23:21:37 10° N 23:25:13 63° ENE 23:26:07 44° SE
Cosmos 1937 Rocket 3.7 23:22:46 24° SW 23:25:59 72° WNW 23:31:18 10° NNE
Okean 2 Rocket 3.4 23:21:41 10° N 23:26:11 60° ENE 23:28:05 32° SE
Cosmos 2360 Rocket 2.5 23:22:25 16° SW 23:26:54 63° WNW 23:32:33 10° NNE
Cosmos 1943 Rocket 4.4 23:24:03 10° NNW 23:28:31 23° NE 23:32:58 10° E
Cosmos 405 Rocket 4.1 23:28:20 23° ESE 23:29:09 25° E 23:32:17 10° NE
Cosmos 1437 Rocket 4.0 23:28:36 10° N 23:32:00 31° ENE 23:33:33 22° ESE
In-Cosmos 22 4.3 23:29:31 31° SSE 23:32:06 64° E 23:37:31 10° NNE
Cosmos 2333 4.1 23:29:02 26° SSW 23:32:22 87° WNW 23:38:03 10° NNE
Cosmos 1908 3.7 23:29:53 10° N 23:33:36 50° ENE 23:34:48 35° SE
Cosmos 1867 3.9 23:33:43 33° S 23:35:49 50° ESE 23:41:06 10° NE
Meteor 1-21 4.3 23:34:35 31° S 23:37:29 75° E 23:43:18 10° NNE
Cosmos 1626 2.7 23:37:36 38° SE 23:38:21 44° E 23:41:52 10° NNE
Cosmos 1842 4.1 23:38:57 29° SW 23:40:28 43° WNW 23:44:12 10° N
Cosmos 1953 3.4 23:39:16 10° N 23:43:03 38° ENE 23:44:46 25° ESE
USA 215 3.2 23:37:26 10° ENE 23:44:01 80° SSE 23:50:36 10° SW
Cosmos 2278 Rocket 2.5 23:39:12 10° NNW 23:44:52 66° ENE 23:48:51 20° SE
Cosmos 1674 2.6 23:50:45 49° S 23:51:40 78° E 23:55:26 10° NNE
Sich 1 Rocket 3.7 23:48:07 10° NNW 23:52:29 62° W 23:54:00 38° SSW
